User: anonymous   Login
Location: Unspecified
(0.0000°N, 0.0000°E)
Time: 10:09:18
(UTC+00:00)
Language:

FALCON 9 R/B - Orbit

View from above orbital plane
View from above orbital plane
View from above satellite
View from above satellite

Ground track
Ground track

The orbit data is extracted from the following two-line orbital elements,

1 37253U 10066K   15031.86676309  .00016568  00000-0  14722-2 0  3277
2 37253 034.4970 195.2211 4341378 137.1825 266.3673 06.79433709101033
Epoch (UTC): 31 January 2015 20:48:08
Eccentricity: 0.4341378
inclination: 34.4970°
perigee height: 285 km
apogee height: 10509 km
right ascension of ascending node: 195.2211°
argument of perigee: 137.1825°
revolutions per day: 6.79433709
mean anomaly at epoch: 266.3673°
orbit number at epoch: 10103

The dashed part of the orbit path shows where the satellite is in the earth's shadow,  

DLR